STARLINK-11717

Satellite information

Favourite Embed

Satellite Type and Status

PAYLOADIN ORBIT

Key statistics

Satellite STARLINK-11717 at a glance.

Uptime

203

Days in orbit

Revolutions

≈ 15.7

Per day

Orbit

LEO

Low Earth Orbit

Inclination

43.0

Latest

Satellite identification and parameters

Extended collection of information and parameters for STARLINK-11717.

Object identification

Identified? True

Debris? False

Object name: STARLINK-11717

International designator: 2025-111D

Object number (NORAD): 64126

Object ID (CCSDS): 64126

Country: UNITED STATES OF AMERICA (US)

Current information (Y/N): Y

RCS size: LARGE

Orbital parameters

Period: 91.665 minutes

Inclination: 42.9981 deg

SMA: 6734.365 km

Apoapsis: 357.076 km

Periapsis: 355.385 km

RAAN: 143.4394 deg

Eccentricy: 0.0001256

Argument of periapsis: 285.366 deg

Mean anomaly: 74.7069 deg

Mean motion: 15.70933314 rev/day

Mean motion (dot): 0.00284959 rev/day2

B* drag term: 0.0021406 1/REarth

Two-line elements (TLE)

Creation date: Dec. 12, 2025, 7:26 a.m.

Reference frame: TEME

Reference center: EARTH

Epoch: Dec. 11, 2025, 8:36 p.m. UTC

TLE line 0: 0 STARLINK-11717

TLE line 1: 1 64126U 25111D 25345.85878389 .00284959 00000-0 21406-2 0 9996

TLE line 2: 2 64126 42.9981 143.4394 0001256 285.3660 74.7069 15.70933314 32774

Live tracking on map

Real-time ground track for satellite STARLINK-11717.

In-orbit conjunctions

There are no conjunctions computed for STARLINK-11717, at the moment. Check back to stay up to date, as we update our databases every day.

Go to all conjunctions

Associated space launch

A batch of 23 satellites for the Starlink mega-constellation - SpaceX's project for space-based Internet communication system.

STARLINK-11717 was lifted into orbit during the mission ‘Falcon 9 Block 5 | Starlink Group 12-22’, on board a Falcon 9 space rocket.

The launch took place on May 24, 2025, 5:19 p.m. from Space Launch Complex 40.

For more information about the launch, click the button.

Launch to space Falcon 9 Block 5 | Starlink Group 12-22
Falcon 9 Block 5 | Starlink Group 12-22

Agency: SpaceX

Status: Launch Successful

Launch date: May 24, 2025, 5:19 p.m. UTC

Rocket: Falcon 9

Launch pad: Space Launch Complex 40

Location: Cape Canaveral SFS, FL, USA

...

Latest news about this satellite

News about space launch
Launch Roundup: SpaceX to start new Starlink shell; China, Russia to launch unknown payloads

This week, SpaceX will begin building a new shell for its Starlink constellation, launching from… The post Launch Roundup: SpaceX to start new Starlink shell; China, Russia to launch unknown payloads appeared first on NASASpaceFlight.com.


Newsletter sign-up

Weekly statistics, charts and insights to help you stay on top of the space industry.